Погода в Тузлах

Украина / Одесская область     45°51′55″N   30°05′32″E
темп.,
°C
ветер,
м/с
пор.,
м/с
влажн.,
%
обл.,
%
осадки,
мм/ч
давл.,
гПа
погр.,
м
5 марта, пт
пт523:00+7юз787933 0.0 101383
02:00+7юз787928 0.0 101375
05:00+7зюз667829 0.0 101256
08:00+6сз447315 0.0 101230
11:00+6в11810 0.0 101230
14:00+7ююв227832 0.0 101130
17:00+8ююв456875 0.0 101128
20:00+9з565870 0.0 101223
6 марта, сб
сб623:00+8з786433 0.0 101369
02:00+6ссз7118248 0.0 1016171
05:00+5ссз81179100 0.0 1018550
08:00+3с91274100 0.0 1022834
11:00+4с7956100 0.0 10241195
14:00+4с7853100 0.0 1025895
17:00+5с684867 0.0 1026545
20:00+4с575133 0.0 1028784
7 марта, вс
вс723:00+3с22450 0.0 1030130
02:00+3з56510 0.0 1030377
05:00+2сз56610 0.0 1029321
08:00+1сз34550 0.0 1029293
11:00+3юз57540 0.0 1028675
14:00+5юз57570 0.0 1025253
17:00+6зюз68550 0.0 1022144
20:00+4юз1113640 0.0 1021401
8 марта, пн
пн823:00+5юз811710 0.0 1021284
02:00+4юз8107342 0.0 1019386
05:00+4зюз797451 0.0 1018381
08:00+3зюз567526 0.0 1018338
11:00+3юз33720 0.0 1018227
14:00+4ю337050 0.0 1016104
17:00+5ю4576100 0.0 101585
20:00+6юз567267 0.0 101574
9 марта, вт
вт923:00+5юз348471 0.0 101540
02:00+5сз128537 0.0 101522
05:00+4с68760 0.0 1016252
08:00+3с810730 0.0 1018457
11:00+4ссв78631 0.0 1019693
14:00+5ссв46570 0.0 1019180
17:00+5ссв675434 0.0 1019240
20:00+3ссв785440 0.0 1021734